SCP
0 0 0 0 0 0 0 0 0 0 0 0 0 0 0 0 0 0 0 0 0 0 0 0 0 0 0 0 0 0 0 0 0 0 0 0 0 0 0 0 0 0 0 0
0 0 0 0 0 0 0 0 0 0 0 0 0 0 0 0 0 0 0 0 0 0 0 0 0 0 0 0 0 0 0 0 0 0 0 0 0 0 0 0 0 0 0 0
0 0 0 0 0 0 0 0 0 0 0 0 0 0 0 0 0 0 0 0 0 0 0 0 0 0 0 0 0 0 0 0 0 0 0 0 0 0 0 0 0 0 0 0
0 0 0 0 0 0 0 0 0 0 0 0 0 0 0 0 0 0 0 0 0 0 0 0 0 0 0 0 0 0 0 0 0 0 0 0 0 0 0 0 0 0 0 0
0 0 0 0 0 0 0 0 0 0 0 0 0 0 0 0 0 0 0 0 0 0 0 0 0 0 0 0 0 0 0 0 0 0 0 0 0 0 0 0 0 0 0 0
0 0 0 0 0 0 0 0 0 0 0 0 0 0 0 0 0 0 0 0 0 0 0 0 0 0 0 0 0 0 0 0 0 0 0 0 0 0 0 0 0 0 0 0
0 0 0 0 0 0 0 0 0 0 0 0 0 0 0 0 0 0 0 0 0 0 0 0 0 0 0 0 0 0 0 0 0 0 0 0 0 0 0 0 0 0 0 0
0 0 0 0 0 0 0 0 0 0 0 0 0 0 0 0 0 0 0 0 0 0 0 0 0 0 0 0 0 0 0 0 0 0 0 0 0 0 0 0 0 0 0 0
0 0 0 0 0 0 0 0 0 0 0 0 0 0 0 0 0 0 0 0 0 0 0 0 0 0 0 0 0 0 0 0 0 0 0 0 0 0 0 0 0 0 0 0
0 0 0 0 0 0 0 0 0 0 0 0 0 0 0 0 0 0 0 0 0 0 0 0 0 0 0 0 0 0 0 0 0 0 0 0 0 0 0 0 0 0 0 0
0 0 0 0 0 0 0 0 0 0 0 0 0 0 0 0 0 0 0 0 0 0 0 0 0 0 0 0 0 0 0 0 0 0 0 0 0 0 0 0 0 0 0 0
0 0 0 0 0 0 0 0 0 0 0 0 0 0 0 0 0 0 0 0 0 0 0 0 0 0 0 0 0 0 0 0 0 0 0 0 0 0 0 0 0 0 0 0
0 0 0 0 0 0 0 0 0 0 0 0 0 0 0 0 0 0 0 0 0 0 0 0 0 0 0 0 0 0 0 0 0 0 0 0 0 0 0 0 0 0 0 0
0 0 0 0 0 0 0 0 0 0 0 0 0 0 0 0 0 0 0 0 0 0 0 0 0 0 0 0 0 0 0 0 0 0 0 0 0 0 0 0 0 0 0 0
0 0 0 0 0 0 0 0 0 0 0 0 0 0 0 0 0 0 0 0 0 0 0 0 0 0 0 0 0 0 0 0 0 0 0 0 0 0 0 0 0 0 0 0
0 0 0 0 0 0 0 0 0 0 0 0 0 0 0 0 0 0 0 0 0 0 0 0 0 0 0 0 0 0 0 0 0 0 0 0 0 0 0 0 0 0 0 0
0 0 0 0 0 0 0 0 0 0 0 0 0 0 0 0 0 0 0 0 0 0 0 0 0 0 0 0 0 0 0 0 0 0 0 0 0 0 0 0 0 0 0 0
0 0 0 0 0 0 0 0 0 0 0 0 0 0 0 0 0 0 0 0 0 0 0 0 0 0 0 0 0 0 0 0 0 0 0 0 0 0 0 0 0 0 0 0
0 0 0 0 0 0 0 0 0 0 0 0 0 0 0 0 0 0 0 0 0 0 0 0 0 0 0 0 0 0 0 0 0 0 0 0 0 0 0 0 0 0 0 0
0 0 0 0 0 0 0 0 0 0 0 0 0 0 0 0 0 0 0 0 0 0 0 0 0 0 0 0 0 0 0 0 0 0 0 0 0 0 0 0 0 0 0 0
0 0 0 0 0 0 0 0 0 0 0 0 0 0 0 0 0 0 0 0 0 0 0 0 0 0 0 0 0 0 0 0 0 0 0 0 0 0 0 0 0 0 0 0
0 0 0 0 0 0 0 0 0 0 0 0 0 0 0 0 0 0 0 0 0 0 0 0 0 0 0 0 0 0 0 0 0 0 0 0 0 0 0 0 0 0 0 0
0 0 0 0 0 0 0 0 0 0 0 0 0 0 0 0 0 0 0 0 0 0 0 0 0 0 0 0 0 0 0 0 0 0 0 0 0 0 0 0 0 0 0 0
0 0 0 0 0 0 0 0 0 0 0 0 0 0 0 0 0 0 0 0 0 0 0 0 0 0 0 0 0 0 0 0 0 0 0 0 0 0 0 0 0 0 0 0
0 0 0 0 0 0 0 0 0 0 0 0 0 0 0 0 0 0 0 0 0 0 0 0 0 0 0 0 0 0 0 0 0 0 0 0 0 0 0 0 0 0 0 0
0 0 0 0 0 0 0 0 0 0 0 0 0 0 0 0 0 0 0 0 0 0 0 0 0 0 0 0 0 0 0 0 0 0 0 0 0 0 0 0 0 0 0 0
0 0 0 0 0 0 0 0 0 0 0 0 0 0 0 0 0 0 0 0 0 0 0 0 0 0 0 0 0 0 0 0 0 0 0 0 0 0 0 0 0 0 0 0
Wind_Speed
5 2 4 5 7 8 9 10 11 10 11 10 7 7 5 4 4 3 1 1 1 3 4 5 5 6 6 6 6 6 6 7 8 8 8 8 9 9 9 9 10 10 11 11
2 0 2 5 9 10 11 9 10 9 11 4 2 4 4 5 5 3 1 1 3 4 5 6 6 6 6 7 7 6 7 8 8 8 9 9 10 10 10 10 10 10 11 12
3 1 3 9 12 12 8 8 9 11 8 4 4 5 6 6 5 3 2 3 4 5 5 6 6 6 6 7 7 7 8 9 9 9 10 10 11 11 11 11 11 11 11 11
3 2 9 9 2 5 6 6 7 4 3 5 5 3 2 4 5 3 2 3 4 5 5 5 5 6 6 7 7 7 8 9 9 9 11 11 11 12 12 11 11 11 12 12
4 5 9 9 4 6 7 6 5 7 5 4 3 2 2 3 3 2 2 3 4 5 5 5 6 6 7 7 8 8 9 9 9 10 11 12 12 13 12 12 12 11 12 12
5 5 9 8 2 4 4 4 4 7 7 5 4 2 3 1 1 2 2 3 3 4 4 5 6 6 7 8 9 10 10 10 10 10 11 13 14 14 12 11 13 13 13 12
6 7 11 7 3 5 4 7 5 6 6 6 5 5 3 1 1 2 3 3 4 5 5 6 7 6 8 9 10 11 10 11 11 10 11 13 13 11 12 13 13 13 14 13
6 6 12 3 7 8 6 4 6 5 5 5 4 2 1 1 2 3 4 4 4 5 7 7 7 7 9 11 11 10 10 11 11 11 10 11 12 13 12 12 14 13 13 13
10 8 2 1 4 3 5 6 5 5 4 4 3 1 1 2 3 4 4 5 5 6 8 8 7 7 10 12 11 11 11 11 12 12 10 9 11 13 12 10 10 12 12 12
4 5 2 1 3 3 4 5 4 3 3 3 2 2 2 3 3 4 5 5 5 6 8 10 9 8 9 11 11 11 12 12 11 11 12 10 8 9 10 10 11 12 12 12
4 2 2 2 3 4 3 4 4 3 2 2 2 2 3 3 5 5 6 6 6 7 9 11 11 10 10 10 10 11 11 11 11 10 11 12 10 9 12 10 13 16 13 12
7 7 7 6 5 5 4 3 3 2 1 1 2 3 4 5 5 6 6 7 7 9 10 11 11 11 11 9 8 10 11 10 9 9 10 10 11 12 16 19 25 26 25 22
3 2 4 3 4 4 3 3 2 3 3 2 3 4 4 5 5 6 7 8 9 10 11 11 11 12 11 9 8 9 11 12 10 10 10 11 11 13 14 15 20 23 23 24
3 4 3 3 3 3 3 3 3 2 2 3 4 4 5 6 6 8 9 10 9 10 11 11 12 13 11 9 8 9 10 13 13 10 10 11 11 12 12 14 14 11 14 21
2 3 4 4 5 4 3 3 2 1 2 3 4 5 6 7 8 9 10 9 9 10 11 11 12 13 10 8 9 10 9 9 9 9 10 11 11 12 12 13 13 13 11 13
4 5 5 5 5 3 3 2 2 3 3 4 5 6 7 8 9 10 10 9 9 11 12 11 13 12 10 9 9 9 8 16 17 11 10 11 11 11 11 12 12 11 11 11
6 5 4 4 3 2 2 3 3 4 5 6 7 8 8 8 9 10 10 9 9 11 11 12 13 12 9 9 9 8 8 11 18 13 10 11 11 11 11 11 11 11 11 13
5 5 5 5 4 3 3 3 4 5 6 7 7 7 8 9 11 12 12 10 10 11 11 11 11 10 9 9 8 7 8 9 9 10 10 10 11 10 10 11 12 13 11 12
5 4 3 3 3 3 3 4 5 6 7 7 7 9 9 10 10 11 11 10 11 13 11 8 15 12 9 11 13 7 8 10 11 10 10 14 13 10 10 11 11 11 11 11
3 2 1 1 2 3 4 5 6 7 7 7 8 9 10 11 10 10 10 11 10 10 10 11 11 9 9 10 14 8 8 10 11 11 10 10 10 10 10 11 11 11 11 10
1 0 1 3 4 5 6 6 6 8 8 8 8 10 12 12 10 9 9 11 10 9 10 15 10 7 7 10 14 7 7 9 9 10 10 10 11 11 11 11 11 11 10 10
1 2 4 4 5 7 7 6 7 8 9 9 10 10 11 11 11 9 10 10 10 14 10 7 7 11 15 17 7 6 7 9 9 9 9 10 10 11 11 11 11 10 10 9
3 4 5 6 6 7 8 7 8 8 9 10 10 11 11 11 8 9 11 7 7 14 11 7 12 20 23 11 5 6 8 9 10 10 10 10 10 11 11 11 10 10 9 9
5 5 6 6 5 6 9 10 8 8 9 10 10 11 10 9 9 7 8 14 17 18 10 12 20 22 20 7 6 7 8 9 9 10 10 10 9 10 10 10 10 9 9 10
6 6 6 7 7 7 9 9 9 9 9 8 9 10 8 7 9 9 8 9 15 17 9 12 19 21 12 6 7 8 8 9 11 11 9 9 10 10 10 9 9 9 9 8
6 6 7 7 7 7 7 7 7 8 8 9 9 7 7 6 8 8 8 9 11 15 11 8 8 11 8 7 8 9 8 10 11 10 10 10 11 10 10 9 11 9 8 8
6 6 6 6 7 7 6 7 8 9 8 8 10 9 8 8 8 8 9 9 8 8 8 7 7 7 7 8 8 8 8 8 9 9 9 9 9 9 9 10 9 8 8 7
Wind_Direction
233 209 177 208 208 193 199 203 213 229 229 237 226 214 200 177 158 137 115 50 348 320 310 312 315 313 311 307 308 310 311 307 300 297 296 294 293 292 290 286 283 281 281 280
251 141 210 251 242 226 227 225 233 252 259 238 175 143 154 167 161 154 185 296 309 309 308 306 305 303 306 304 305 307 304 299 297 298 298 295 294 293 291 288 284 282 279 280
238 298 357 266 233 218 217 210 199 228 238 154 144 160 177 182 175 180 233 283 294 296 292 294 294 294 297 296 301 304 300 298 298 297 297 295 296 297 294 291 288 286 281 279
161 134 237 243 194 183 198 228 209 202 168 158 160 173 190 177 173 199 258 282 288 289 291 294 292 294 294 297 300 299 297 296 296 296 295 297 297 295 294 290 290 288 287 284
155 216 269 285 231 180 187 245 200 171 158 138 110 65 331 198 174 197 256 271 273 277 281 290 295 298 303 303 301 299 297 295 295 295 297 299 299 297 296 296 295 290 288 288
154 194 241 247 196 158 122 253 199 156 155 150 124 111 259 215 209 288 295 289 287 294 296 298 296 301 303 300 300 297 295 294 295 295 295 297 297 298 298 295 294 295 292 288
185 220 257 248 178 129 181 241 161 154 158 159 175 195 210 275 311 307 305 299 300 303 298 291 295 301 296 295 292 290 292 294 295 293 291 293 294 295 297 297 295 294 293 290
171 206 250 201 144 182 200 130 134 148 162 175 199 221 266 314 313 317 313 307 305 301 295 294 293 293 291 291 290 292 294 295 295 293 292 298 297 298 296 296 298 298 297 296
192 211 251 174 182 162 134 136 153 159 172 169 185 219 281 300 300 297 293 289 286 286 290 293 288 281 284 290 294 297 297 297 297 297 293 289 292 297 300 297 297 299 298 297
225 255 237 152 128 126 130 140 149 147 148 152 176 218 263 275 279 284 283 283 284 290 290 293 292 285 278 287 293 294 296 299 299 300 300 295 288 290 294 297 296 296 296 296
226 232 143 217 193 159 130 114 112 111 128 154 177 227 246 261 273 275 280 282 281 281 284 287 291 290 287 288 292 293 295 296 298 296 296 299 295 288 292 284 286 294 295 295
212 201 182 203 192 163 147 152 155 148 155 178 195 229 255 262 266 271 276 280 283 283 282 286 289 289 289 286 285 289 297 299 299 299 298 298 299 299 293 294 298 299 298 298
190 152 154 146 137 139 149 160 158 169 189 216 238 239 248 259 266 270 275 279 279 280 283 286 288 289 289 287 285 283 288 296 298 297 298 299 300 302 304 304 300 301 302 303
144 120 121 133 138 132 130 129 131 149 212 232 243 251 253 260 268 273 275 275 276 280 283 284 286 287 289 288 286 285 286 293 297 295 295 294 295 297 299 302 306 304 303 304
117 126 138 127 116 114 118 124 130 221 261 267 254 258 263 267 272 274 276 278 281 282 283 284 286 288 290 288 287 288 290 291 292 291 292 293 294 296 297 297 299 301 303 304
119 103 113 121 129 133 138 155 193 254 264 268 273 273 270 268 271 276 279 279 280 284 287 288 287 288 290 289 288 289 286 296 304 300 297 297 297 298 299 299 300 301 303 306
137 137 138 143 151 162 189 213 230 250 264 272 273 278 283 284 285 284 284 279 272 276 280 281 283 286 287 284 284 288 288 293 300 301 296 297 298 298 299 300 301 302 301 303
153 154 158 160 170 197 240 252 254 261 263 266 276 282 283 283 284 287 289 291 289 286 280 275 277 284 281 281 283 283 286 289 292 295 297 298 300 299 300 300 300 300 302 305
128 136 146 162 188 212 240 259 265 266 270 275 278 279 278 278 278 282 287 289 290 292 288 277 293 298 289 288 296 285 286 291 297 298 297 301 304 298 298 298 299 300 301 302
113 125 145 235 253 245 260 269 274 277 276 276 279 282 284 283 281 283 285 282 275 271 278 287 289 280 279 283 296 286 287 294 299 300 300 299 299 299 299 298 300 301 301 301
119 233 272 277 279 276 269 270 273 276 280 279 276 278 282 285 284 282 284 288 284 276 281 291 292 285 287 290 296 288 291 297 299 299 299 299 300 301 300 300 302 303 303 303
260 266 274 276 278 281 278 273 270 273 279 280 277 276 281 285 286 281 268 270 281 290 293 282 281 289 298 303 294 291 295 299 299 297 296 297 299 300 300 301 302 302 302 301
262 263 268 271 272 275 282 279 272 271 273 275 278 279 279 280 282 285 290 282 280 292 296 283 292 301 307 309 294 294 297 298 297 296 296 296 296 297 298 299 300 301 300 299
269 270 270 273 278 281 282 280 275 271 270 273 272 271 273 281 282 269 269 288 296 299 295 293 302 306 312 307 293 293 293 294 294 293 293 294 295 295 296 297 298 298 297 298
268 270 271 275 276 271 271 278 283 281 277 276 274 271 266 262 271 283 283 283 291 299 295 297 303 308 309 292 290 291 292 292 295 298 298 299 298 296 295 295 296 298 298 298
262 263 262 257 256 265 270 274 277 279 281 285 286 281 277 275 274 279 283 283 283 293 296 291 292 298 293 289 290 291 292 296 299 298 295 295 295 296 295 296 297 297 297 296
265 264 267 270 265 257 258 264 271 276 277 280 287 289 286 286 286 287 288 289 289 289 289 288 287 287 289 290 290 290 292 292 292 293 295 295 295 295 296 296 296 296 296 295